Regional Weather Roundup
Issued by NWS

Home | Current Version | Previous Version | Text Only | Print | Product List | Glossary On
Versions: 1 2 3 4 5 6 7 8 9 10 11 12 13 14 15 16 17 18 19 20 21 22 23 24 25 26 27 28 29 30 31 32 33 34 35 36 37 38 39 40 41 42 43 44 45 46 47 48 49 50
795
ASUS46 KLOX 250513
RWRCA

SOUTHERN CALIFORNIA WEATHER ROUNDUP
NATIONAL WEATHER SERVICE OXNARD CALIFORNIA
1000 PM PDT TUE MAY 24 2016

NOTE: "FAIR" INDICATES FEW OR NO CLOUDS BELOW 12,000 FEET WITH NO
SIGNIFICANT WEATHER AND/OR OBSTRUCTIONS TO VISIBILITY.

  -  STATIONS PRECEEDED BY AN ASTERISK (*) ARE NOT NWS OR FAA
     STATIONS AND ARE NOT SUBJECT TO NWS AND FAA QUALITY CONTROL.

CAZ041-042-087-250600-
LA AND ORANGE COUNTY COASTAL AREAS


CITY           SKY/WX    TMP DP  RH WIND       PRES   REMARKS
L.A. DOWNTOWN  PTCLDY    60  52  74 VRB3      30.05R
L.A. AIRPORT   PTCLDY    60  52  74 W9        30.05R
LONG BEACH     MOCLDY    61  50  67 W7        30.06R

CITY           SKY/WX    TMP DP  RH WIND       PRES   REMARKS
AVALON           N/A     61 N/A N/A SE1         N/A
FULLERTON      CLOUDY    63  51  65 VRB5      30.04R
*GETTY CENTER    N/A     52  50  93 SW3         N/A
HAWTHORNE      CLOUDY    61  52  72 W6        30.06R
*LEO CARRILLO    N/A     57  51  81 NW3         N/A
*LOS ALAMITOS  CLOUDY    61  52  72 W8        30.05R
*REDONDO BEACH   N/A     60  53  77 CALM      30.05R
SANTA ANA      MOCLDY    61  51  70 W6        30.06R
STA MONICA APT PTCLDY    60  51  72 SW5       30.06R
*STA MON PIER    N/A     60  54  80 W9        29.99R
*UCLA            N/A     57  50  77 W3        30.02S

$$

CAZ547-548-048-250600-
LA COUNTY VALLEYS AND INLAND EMPIRE


CITY           SKY/WX    TMP DP  RH WIND       PRES   REMARKS
BURBANK        CLEAR     57  50  77 S6        30.04R
VAN NUYS       MOCLDY    58  50  75 E6        30.04R

CITY           SKY/WX    TMP DP  RH WIND       PRES   REMARKS
CORONA AIRPORT CLEAR     58  50  75 W10       30.05R
*CHATSWORTH      N/A     58  49  74 N2        30.06R
CHINO          CLEAR     58  51  78 SW10      30.05R
*CLAREMONT       N/A     55  50  82 SW7         N/A
MARCH AFB      CLOUDY    58  51  78 NW6       30.05R
*NORTHRIDGE      N/A     57  48  72 E1          N/A
ONTARIO        MOCLDY    58  50  75 SW10      30.04R
*PASADENA        N/A     59  54  82 NE1         N/A
RIVERSIDE      PTCLDY    58  50  75 VRB5      30.04R
SAN BERNARDINO NOT AVBL
*SAN GABRIEL     N/A     60  53  76 W2        30.12R
*SAN RAFAEL HI   N/A     53  51  92 E6          N/A
*SAUGUS          N/A     59  49  70 SW8         N/A
*WHITEMAN AP   NOT AVBL
*WOODLAND HILL   N/A     57  48  72 SW3         N/A

$$

CAZ054-055-250600-
LA AND SAN BERNARDINO COUNTY MOUNTAINS


CITY           SKY/WX    TMP DP  RH WIND       PRES   REMARKS
*ACTON           N/A     52  42  68 E3          N/A
*BIG BEAR AIRP CLEAR     37  32  81 CALM      30.08R
*BIG PINES       N/A     36  28  72 CALM        N/A
*CHILAO          N/A     41  39  94 SE3         N/A
SANDBERG       MOCLDY    48  41  76 S13G20    30.06R
*WARM SPRINGS    N/A     46  33  59 CALM        N/A

$$

CAZ028-029-059-060-099-250600-
ANTELOPE VALLEY AND SURROUNDING AREAS


CITY           SKY/WX    TMP DP  RH WIND       PRES   REMARKS
LANCASTER      CLEAR     55  43  63 SW18      30.00R
PALMDALE       CLEAR     55  42  61 SW15      30.00R
*POPPY PARK      N/A     53  43  69 SW21G33     N/A

CITY           SKY/WX    TMP DP  RH WIND       PRES   REMARKS
29 PALMS       PTCLDY    66  36  32 W6        30.00R
BARSTOW/DAGGET CLEAR     64  38  38 SW20      29.95R
BISHOP         LGT RAIN  53  42  66 N3        30.01R
CHINA LAKE     CLEAR     64  34  32 SE13G18   29.88R
EDWARDS AFB    PTCLDY    56  43  60 SW18      29.97R
MOJAVE         CLEAR     55  41  58 S17       29.99R
NEEDLES        PTCLDY    78  33  19 SW14      29.85R
VICTORVILLE    CLEAR     55  41  58 CALM      30.00S

$$

CAZ039-040-250600-
VENTURA AND SANTA BARBARA COUNTY COAST


CITY           SKY/WX    TMP DP  RH WIND       PRES   REMARKS
CAMARILLO      MOCLDY    59  52  77 W7        30.05R
NWS OXNARD       N/A     58  52  80 W3        30.04R
OXNARD AIRPORT MOCLDY    59  53  80 W12       30.05R
*POINT MUGU    PTCLDY    58  53  84 W6        30.06R
SBA APT/GOLETA PTCLDY    56  52  86 S3        30.03R
*SANTA BARBARA   N/A     60  52  76 CALM      30.11S
*VENTURA         N/A     58  53  84 SW3       30.03R

$$

CAZ044-045-250600-
VENTURA COUNTY VALLEYS


CITY           SKY/WX    TMP DP  RH WIND       PRES   REMARKS
*SIMI VALLEY     N/A     55  49  81 CALM      30.02R
*WESTLAKE VILL   N/A     51  47  85 CALM      30.05R
*OJAI            N/A     55  49  82 CALM      30.00R
*FILLMORE        N/A     58  49  72 CALM      29.94S

$$

CAZ053-250600-
VENTURA COUNTY MOUNTAINS


CITY           SKY/WX    TMP DP  RH WIND       PRES   REMARKS
*LOCKWOOD VLY    N/A     45  39  81 CALM        N/A
*ROSE VALLEY     N/A     48  48 100 MISG        N/A

$$

CAZ034-035-036-250600-
CENTRAL COAST AND SANTA YNEZ VALLEY


CITY           SKY/WX    TMP DP  RH WIND       PRES   REMARKS
SAN LUIS OBISP MOCLDY    58  50  75 CALM      30.06R
SANTA MARIA    PTCLDY    54  51  90 CALM      30.07R

CITY           SKY/WX    TMP DP  RH WIND       PRES   REMARKS
*CAL POLY SLO    N/A     55  52  88 W5G10       N/A
*LOMPOC        CLOUDY    57  51  80 W3        30.07R
*PISMO BEACH     N/A     56  50  82 CALM      30.07R
*SANTA YNEZ    CLOUDY    55  48  76 W5        30.06S

$$

CAZ037-038-051-250600-
SAN LUIS OBISPO COUNTY INTERIOR AND CUYAMA VALLEY


CITY           SKY/WX    TMP DP  RH WIND       PRES   REMARKS
*CUYAMA          N/A     54  45  70 W7        29.97R
PASO ROBLES    PTCLDY    54  48  80 S9        30.04R

$$

CAZ032-033-061-250600-
SOUTHERN DESERTS


CITY           SKY/WX    TMP DP  RH WIND       PRES   REMARKS
BLYTHE         PTCLDY    71  44  37 S16       29.88R
IMPERIAL       PTCLDY    69  40  34 W16       29.89R
PALM SPRINGS     N/A    N/A N/A N/A MISG      29.90R
THERMAL        MOCLDY    72  45  37 N23G31    29.86R

$$

ELSEWHERE ACROSS THE WESTERN UNITED STATES AND MEXICO


CITY           SKY/WX    TMP DP  RH WIND       PRES   REMARKS
DEATH VALLEY,    N/A     82  37  19 SE7         N/A
DENVER, CO     PTCLDY    54  47  77 SW6       29.88R
GRAND CANYON,  MOCLDY    47  15  27 SW5       30.10R
HONOLULU, HI   PTCLDY    79  66  65 E16       30.01R
KAHULUI, MAUI  LGT RAIN  73  70  88 CALM      30.03R
LAKE TAHOE, CA LGT RAIN  40  38  93 CALM      30.08R
LAS VEGAS, NV  CLEAR     71  30  21 SW9       29.84R
MAMMOTH LAKES, MOCLDY    40  32  71 CALM      30.08R
MEXICO CITY, M CLOUDY    64  54  68 S12       30.45F
PHOENIX, AZ    CLEAR     81  23  11 W8        29.89R
PORTLAND, OR   PTCLDY    61  48  62 NW9       30.02R
RENO, NV       CLOUDY    55  38  52 NW13      30.01R
SALT LAKE CITY MOCLDY    58  40  51 SE5       29.93R
SAN DIEGO, CA  MOCLDY    64  52  64 W7        30.08R
SAN FRANCISCO, CLOUDY    57  49  74 W14       30.07R
SAN JOSE, CA   MOCLDY    59  49  69 W10       30.06R
SEATTLE, WA    MOCLDY    59  50  72 W5        30.03R
TIJUANA, MEX   MOCLDY    59  50  72 W7        30.08R

$$

STATION/POSITION TIME  TEMP    WIND        PRES    VSBY  WAVE
                       AIR SEA DIR/SP/G                  HT/PER
                 (UTC) (F)     (DEG/KT/KT) (MB)    (MI)  (FT/S)
POINT ARGUELLO B NOT AVBL
WEST SANTA BARBA 0450   57 56  330/  6/  8 1017.2R         3/ 8
POINT CONCEPTION NOT AVBL
EAST SANTA BARBA 0400   58 60  260/ 14/ 17 1017.3R
SANTA MONICA BAY 0450   60 63  280/ 10/ 14 1017.7R         3/ 5



USA.gov is the U.S. government's official web portal to all federal, state and local government web resources and services.